User: anonymous   Login
Location: Gombori
(14.9797°N, 2.9419°W)
Time: 06:39:06
(UTC+00:00)
Language:

Helios 1A Rocket - Orbit

View from above orbital plane
View from above orbital plane
View from above satellite
View from above satellite

Ground track
Ground track

The orbit data is extracted from the following two-line orbital elements,

1 23608U 95033D   21292.88621862  .00001539  00000-0  13599-3 0  9994
2 23608  98.2790 340.9342 0017804  67.9179 292.3930 14.97881211424695
Epoch (UTC): 19 October 2021 21:16:09
Eccentricity: 0.0017804
inclination: 98.2790°
perigee height: 561 km
apogee height: 586 km
right ascension of ascending node: 340.9342°
argument of perigee: 67.9179°
revolutions per day: 14.97881211
mean anomaly at epoch: 292.3930°
orbit number at epoch: 42469

The dashed part of the orbit path shows where the satellite is in the earth's shadow,  

DLR